Portada
METAR-TAF:

METAR-TAF

Aeroports :

Bearce Airport

Mount Ida, Arkansas, Estats Units d'Amèrica

latitud: 34-33N, longitud: 093-35W, altitud: 214 m

Observació

L'informe es va fer fa 41 minuts, a les 04:53 UTC
Vent calma
Temperatura 24°C
Humitat 89%
Pressió 1022 hPa
Visibilitat: 16.1 km
Cel clar

METAR: KMWT 200453Z AUTO 00000KT 10SM CLR 24/22 A3018 RMK AO2 SLP206 T02440222

Hora: 00:34 (05:34 UTC)


TAF: manca

Observacions i pronòstics meteorològics de més de 4000 aeroports (METAR i TAF).

Les estacions disponibles són els punts grocs i vermells al mapa.

Posi el ratolí al punt desitjat per veure el nom de l'estació.

Feu clic per veure les observacions i els pronòstics meteorològics.

Per canviar el mapa: feu clic els botons verds amb una creu de color negre per apropar; al botó verd amb un guió per allunyar la imatge; o en les fletxes verdes per a mapes adjacents.


METAR-TAF: